Location: Unspecified
(64.9000°N, 0.0000°E)
Time: 19:14:10
(UTC+00:00)

Transit 2A Rocket - Pass Details

Date: 21 June 2019
Orbit: 591 x 913 km, 66.7° (Epoch: 25 August)

Event Time Altitude Azimuth Distance (km) Brightness Sun altitude
Rises 11:14:44 0° 207° (SSW) 3,535 8.9 47.8°
Reaches altitude 10° 11:17:23 10° 201° (SSW) 2,582 8.4 47.9°
Maximum altitude 11:23:02 43° 132° (SE) 1,207 7.5 48.1°
Drops below altitude 10° 11:28:24 10° 63° (ENE) 2,453 7.6 48.2°
Sets 11:30:51 0° 57° (ENE) 3,342 8.2 48.2°
